Regional Weather Roundup
Issued by NWS

Home | Current Version | Previous Version | Graphics & Text | Print | Product List | Glossary On
Versions: 1 2 3 4 5 6 7 8 9 10 11 12 13 14 15 16 17 18 19 20 21 22 23 24 25 26 27 28 29 30 31 32 33 34 35 36 37 38 39 40 41 42 43 44 45 46 47 48 49 50
305
ASUS43 KFSD 271902
RWRSD

WEATHER ROUNDUP FOR SOUTH DAKOTA
NATIONAL WEATHER SERVICE SIOUX FALLS SD
200 PM CDT SAT MAY 27 2017

NOTE: "FAIR" INDICATES FEW OR NO CLOUDS BELOW 12,000 FEET WITH NO
SIGNIFICANT WEATHER AND/OR OBSTRUCTIONS TO VISIBILITY.


SDZ001>005-009-010-012>017-272000-
NORTHWEST AND NORTH CENTRAL SOUTH DAKOTA

CITY           SKY/WX    TMP DP  RH WIND       PRES   REMARKS
BUFFALO          N/A     70  34  26 NW23G37   29.90F
FAITH            N/A     68  36  30 NW18G26   29.95S
MOBRIDGE       MOSUNNY   74  35  24 W16G23    29.86F
$$

SDZ012>016-024>037-041>051-057-063-072>074-272000-
SOUTHWEST AND SOUTH CENTRAL SOUTH DAKOTA

CITY           SKY/WX    TMP DP  RH WIND       PRES   REMARKS
RAPID CTY ARPT SUNNY     69  35  28 NW15G25   30.01S
PIERRE         PTSUNNY   70  46  42 SW6       29.93F
CUSTER         CLOUDY    53  34  48 N8        30.09R
ELLSWORTH AFB  SUNNY     68  35  29 NW18G26   30.00
PHILIP         PTSUNNY   71  39  31 NW14G21   29.95F
PINE RIDGE     MOSUNNY   66  42  41 N6        30.04S
SPEARFISH      FAIR      64  39  39 NW12G17   30.04F
WINNER         CLOUDY    63  53  70 SW9       29.99F
$$

SDZ004>011-016>023-039-040-272000-
NORTHEAST SOUTH DAKOTA

CITY           SKY/WX    TMP DP  RH WIND       PRES   REMARKS
ABERDEEN       MOSUNNY   76  35  22 SW14G23   29.87F
WATERTOWN      CLOUDY    70  42  36 NW9       29.90F
BROOKINGS      CLOUDY    68  48  48 SW9       29.93F
SISSETON         N/A     75  44  33 W18       29.84F
$$

SDZ017-020-022-023-036>040-048>070-272000-
SOUTHEAST SOUTH DAKOTA

CITY           SKY/WX    TMP DP  RH WIND       PRES   REMARKS
SIOUX FALLS    CLOUDY    63  54  72 SW8       29.95F
HURON          CLOUDY    65  45  48 W7        29.94R
CHAMBERLAIN    MOSUNNY   66  49  53 SW7       29.97F
MITCHELL       CLOUDY    68  47  46 W6        29.95S
YANKTON        CLOUDY    62  52  69 NW8       29.96F
$$

ABBREVIATIONS USED IN REMARKS
   TC - TEMPERATURE IN CELSIUS
  WCI - WIND CHILL INDEX
   HX - HEAT INDEX
  VSB - VISIBILITY





USA.gov is the U.S. government's official web portal to all federal, state and local government web resources and services.